This demonstration page uses our WeatherBlox Daily Observations layout. Learn more.

Left ArrowRight Arrow

Hourly Observations for April 14, 2021

Temp ( °F °C ) Dew Point ( °F °C ) Humidity (%) Winds ( mph kmh ) Pressure ( in mb ) Visibility ( mi km ) Precip ( " mm )
12:56 am 00:56 Clear 33 0.6 23 -5 66 66 N 9 15 30.31 1027 10 16 0.00 0.00
1:56 am 01:56 Clear 31 -0.6 23 -5 72 72 N 10 17 30.33 1027 10 16 0.00 0.00
2:56 am 02:56 Clear 31 -0.6 23 -5 72 72 NNW 6 9 30.32 1027 10 16 0.00 0.00
3:56 am 03:56 Clear 29 -1.7 22 -5.6 75 75 NNW 6 9 30.33 1027 10 16 0.00 0.00
4:56 am 04:56 Clear 28 -2.2 21 -6.1 75 75 NNW 8 13 30.33 1027 10 16 0.00 0.00
5:56 am 05:56 Clear 27 -2.8 21 -6.1 78 78 NNW 6 9 30.33 1027 10 16 0.00 0.00
6:56 am 06:56 Clear 27 -2.8 20 -6.7 75 75 NNW 7 11 30.34 1027 10 16 0.00 0.00
7:56 am 07:56 Mostly Cloudy 29 -1.7 21 -6.1 72 72 NNW 9 15 30.36 1028 9 14 0.00 0.00
8:56 am 08:56 Sunny 34 1.1 21 -6.1 59 59 N 14 22 30.37 1029 9 14 0.00 0.00
9:56 am 09:56 Mostly Cloudy 35 1.7 21 -6.1 57 57 N 14 22 30.37 1028 10 16 0.00 0.00
10:56 am 10:56 Mostly Cloudy 38 3.3 22 -5.6 52 52 N 17 28 30.37 1029 10 16 0.00 0.00
11:56 am 11:56 Mostly Cloudy 38 3.3 22 -5.6 52 52 NNW 12 19 30.37 1029 8 13 0.00 0.00
12:56 pm 12:56 Cloudy 40 4.4 23 -5 51 51 NNW 15 24 30.35 1028 9 14 0.00 0.00
1:56 pm 13:56 Cloudy 42 5.6 24 -4.4 49 49 N 12 19 30.33 1027 10 16 0.00 0.00
2:56 pm 14:56 Mostly Sunny 46 7.8 25 -3.9 44 44 NNW 14 22 30.30 1026 10 16 0.00 0.00
3:56 pm 15:56 Partly Cloudy 45 7.2 24 -4.4 44 44 NNW 12 19 30.29 1026 10 16 0.00 0.00
4:56 pm 16:56 Mostly Cloudy 45 7.2 24 -4.4 44 44 N 10 17 30.27 1025 10 16 0.00 0.00
5:56 pm 17:56 Cloudy 46 7.8 25 -3.9 44 44 N 16 26 30.26 1025 10 16 0.00 0.00
6:56 pm 18:56 Mostly Cloudy 45 7.2 26 -3.3 48 48 NNE 15 24 30.26 1025 10 16 0.00 0.00
7:56 pm 19:56 Cloudy 43 6.1 26 -3.3 51 51 NNE 14 22 30.26 1025 10 16 0.00 0.00
8:56 pm 20:56 Clear 38 3.3 26 -3.3 62 62 NNE 8 13 30.27 1025 10 16 0.00 0.00
9:56 pm 21:56 Mostly Cloudy 38 3.3 26 -3.3 62 62 N 8 13 30.30 1026 10 16 0.00 0.00
10:56 pm 22:56 Clear 36 2.2 26 -3.3 67 67 N 6 9 30.32 1027 10 16 0.00 0.00
11:56 pm 23:56 Clear 33 0.6 25 -3.9 72 72 NNW 3 6 30.33 1027 10 16 0.00 0.00

Powered by AerisWeather